Location: San Gennaro Vesuviano
(40.8833°N, 14.5333°E)
Time: 22:53:07
(UTC+00:00)

Landsat 7 - Pass Details

Date: 22 April 2021
Orbit: 701 x 703 km, 98.0° (Epoch: 10 May)

Event Time Altitude Azimuth Distance (km) Brightness Sun altitude
Exits shadow 19:55:11 48° 167° (SSE) 914 4.0 -21.6°
Maximum altitude 19:56:31 89° 246° (WSW) 708 3.7 -21.8°
Drops below altitude 10° 20:01:19 10° 347° (NNW) 2,176 7.1 -22.5°
Sets 20:03:34 0° 348° (NNW) 3,099 8.0 -22.8°
